User: anonymous   Login
Location: Caltech
(34.1382°N, 118.1253°W)
Time: 07:55:09
(UTC-08:00)
Language:

ERBS - Orbit

View from above orbital plane
View from above orbital plane
View from above satellite
View from above satellite

Ground track
Ground track

The orbit data is extracted from the following two-line orbital elements,

1 15354U 84108B   18050.76554515 +.00003119 +00000-0 +72837-4 0  9996
2 15354 057.0077 151.0815 0008315 186.9647 173.1295 15.45342148836186
Epoch (UTC): 19 February 2018 18:22:23
Eccentricity: 0.0008315
inclination: 57.0077°
perigee height: 425 km
apogee height: 436 km
right ascension of ascending node: 151.0815°
argument of perigee: 186.9647°
revolutions per day: 15.45342148
mean anomaly at epoch: 173.1295°
orbit number at epoch: 83618

The dashed part of the orbit path shows where the satellite is in the earth's shadow,  

DLR